LEMUR-2-JIN-LUEN (43182 NORAD) Tracking and Keplerian Element Data

This shows tracking and keplerian element data for the satellite.

Feedback or suggestion? Click here.




ElementValue
Catalog43182
NameLEMUR-2-JIN-LUEN
Epoch Orbit43288
Epoch Day353.26554403
Epoch Year2025
RAAN272.7606
Inclination97.5507
Eccentricity0.0004688
Argument of Perigee165.7716
Mean Anonmoly194.3671
Mean Motion15.56348066
Decay Rate0.00059291
L11 43182U 18014C 25353.26554403 .00059291 00000+0 83793-3 0 9997
L22 43182 97.5507 272.7606 0004688 165.7716 194.3671 15.56348066432882



Live tracking and technical data element details for LEMUR-2-JIN-LUEN (NORAD 43182). LEMUR-2-JIN-LUEN can be tracked NOW for your location showing map with azimuth and elevation plus other details from your city location.







IsCatalogInMostPopularTable: catalog: 43182, numindb: 659
Update: records affected: 1



GetName: 43182 LEMUR-2-JIN-LUEN

Hit Count: updated at: Mon, 18 May 2026 08:58:15 GMT